Simultaneous Nadir Overpasses (SNOs) Predictions

Prediction of SNOs between LANDSAT-8 and METOP-A Satellite Orbit:

Table of predicted SNOs for the next 14.0 days since TLE Epoch: 11/28/2021
Index Date (LANDSAT-8) Time (LANDSAT-8) Lat,Lon (LANDSAT-8) SZA (LANDSAT-8 ) Date (METOP-A) Time (METOP-A) Lat,Lon (METOP-A) SZA (METOP-A ) Distance(km) Time Diff (sec)
1 12/11/2021 04:26:15 -81.28, -24.05 73.40 12/11/2021 04:27:21 -81.29, -23.97 73.36 1.70 66
2 12/11/2021 06:05:08 -81.28, -48.75 73.39 12/11/2021 06:05:55 -81.30, -48.81 73.37 1.99 47
3 12/11/2021 06:54:34 81.28, 118.88 106.61 12/11/2021 06:55:42 81.29, 118.93 106.65 1.25 68
4 12/11/2021 07:44:00 -81.31, -73.06 73.33 12/11/2021 07:44:28 -81.29, -73.23 73.35 3.32 28
5 12/11/2021 08:33:27 81.28, 94.18 106.62 12/11/2021 08:34:16 81.29, 94.19 106.65 1.14 49
6 12/11/2021 09:22:54 -81.29, -98.13 73.37 12/11/2021 09:23:02 -81.30, -98.06 73.36 1.75 8
7 12/11/2021 10:12:20 81.29, 69.49 106.63 12/11/2021 10:12:50 81.30, 69.45 106.65 1.51 30
8 12/11/2021 11:01:46 -81.31,-122.45 73.31 12/11/2021 11:01:35 -81.29,-122.49 73.34 2.17 11
9 12/11/2021 11:51:13 81.29, 44.80 106.64 12/11/2021 11:51:24 81.30, 44.72 106.65 2.11 11
10 12/11/2021 12:40:39 -81.31,-147.14 73.30 12/11/2021 12:40:09 -81.30,-147.32 73.34 3.36 30
11 12/11/2021 13:30:06 81.29, 20.10 106.65 12/11/2021 13:29:58 81.31, 19.98 106.65 2.81 8
12 12/11/2021 14:19:33 -81.29,-172.21 73.35 12/11/2021 14:18:43 -81.31,-172.15 73.35 1.83 50
13 12/11/2021 15:08:58 81.31, -4.21 106.71 12/11/2021 15:08:31 81.30, -4.38 106.67 3.32 27
14 12/11/2021 15:58:25 -81.31, 163.47 73.29 12/11/2021 15:57:16 -81.30, 163.42 73.33 2.01 69
15 12/11/2021 16:47:52 81.29, -29.28 106.66 12/11/2021 16:47:05 81.30, -29.12 106.67 2.94 47



Historial Predications of SNOs between LANDSAT-8 and METOP-A
